Showing default

ALSAT 1N, 41789

Orbit data source: Space-Track

ALSAT 1N, 41789 is an Algerian payload satellite in SSO that was launched on Mon, 26 Sep 2016 UTC via a PSLV launch vehicle from the Sirharikota (SRI). Payload-class satellites include a variety of spacecraft equipped with specific instruments for various scientific and technological missions. These include communications satellites like Starlink; space stations such as the ISS; scientific satellites like the Hubble; Earth observation satellites from companies like Planet Labs, Umbra, and HawkEye 360; GPS; miniature CubeSats for education and research; and military/defense satellites.

Loading next visibility...
Identifier
41789, 2016-059G
Orbit
SSO
Country
Flag of DZDZ / ALG
Related business
Manufacturer
ASAL/SSC
Mission
Non-operational Civil Technology
Bus & Motor
CUBESAT 3U, Unknown motor
Mass
7 kg wet, 7 kg dry
Launch date (UTC)
2016-09-26 (10 years ago)
Launch vehicle
PSLV
Launch site
Sirharikota (SRI)
Object type
Payload
Rocket body
Debris
Shape & HBR
Box, 0.1 m
Radar Cross Section
0.035 m², Medium (>0.1 m² and < 1m²)

Expand to show TLE details & history
Last TLE update: 22 hours ago

TLE from 22 hours ago
0 ALSAT 1N
1 41789U 16059G   26172.54212622  .00000608  00000-0  11048-3 0  9993
2 41789  97.8005 175.6994 0025900 170.7139 189.4552 14.69312315520641
Epoch: 2026-06-21T13:00Z
TLE epoch observation values (Epoch: 2026-06-21T13:00:39.705Z)
Latitude
0.00002°
Longitude
70.79306°
Altitude
684.269 km
Speed
7.505 km/s
True Right ascension
11h 42m 47s
True Declination
0° 00' 00"
Sunlit
Object was in daylight at epoch
Visualization orbit readout
Latitude
Unknown
Longitude
Unknown
Altitude
Unknown
Speed
Unknown
Apparent Right ascension
Unknown
Apparent Declination
Unknown
Sunlit
N/A
Visualization observer readout
Local Sidereal Time
21:34:56
Azimuth
Unknown
Elevation
Unknown
Doppler factor
Unknown
Orbital elements
Apogee altitude
678.545 km
Perigee altitude
642.085 km
Semi-major axis
7,038.452 km
Eccentricity
0.00259
Inclination
97.8005°
RAAN
175.6994°
Arg. of periapsis
170.7139°
True anomaly
189.4066°
Mean anomaly
189.4552°
Eccentric anomaly
189.43088°
Mean motion
3.67559 °/min
Orbital period
97.94 mins
BSTAR
0.00011048
Loading maneuver chart data...
Computing Atmospheric mass density...
Loading historical data...
Loading historical data...
Loading historical data...
Loading historical data...
Loading historical data...
Loading historical data...
Loading historical data...

Documentation

Showing up to 5 results
|